Location: Cheyres
(46.8153°N, 6.7877°E)
Time: 11:03:01
(UTC+00:00)

Gbstr 26 Del rocket - Pass Details

Date: 23 September 2021
Orbit: 492 x 1263 km, 51.8° (Epoch: 18 October)

Event Time Altitude Azimuth Distance (km) Brightness Sun altitude
Rises 21:25:46 0° 237° (WSW) 3,991 7.3 -36.8°
Reaches altitude 10° 21:28:26 10° 237° (WSW) 3,104 6.6 -37.1°
Enters shadow 21:28:54 12° 237° (WSW) 2,951 6.5 -37.1°
